This is the latest recevied weather packets stored in our database for station/object WD4ITN. If no packets are shown the sender has not sent any weather packets the latest 10 day(s).
| Time | Temp. | Humidity | Pressure | Rain* | Wind** | Luminosity | Snow |
|---|---|---|---|---|---|---|---|
| 1787671996 | 20.56° C | 68% | 1020.1 hPa | 0 mm | - | - | - |
| 1787671699 | 20.56° C | 71% | 1020 hPa | 0 mm | - | - | - |
| 1787671394 | 20.56° C | 70% | 1020.2 hPa | 0 mm | - | - | - |
| 1787671108 | 20° C | 73% | 1020.2 hPa | 0 mm | - | - | - |
| 1787670804 | 20.56° C | 70% | 1020 hPa | 0 mm | - | - | - |
| 1787670501 | 20° C | 73% | 1020 hPa | 0 mm | - | - | - |
| 1787670196 | 20° C | 73% | 1020.1 hPa | 0 mm | - | - | - |
| 1787669912 | 20° C | 75% | 1020.1 hPa | 0 mm | - | - | - |
| 1787669600 | 19.44° C | 75% | 1020.1 hPa | 0 mm | - | - | - |
| 1787669300 | 19.44° C | 72% | 1020 hPa | 0 mm | - | - | - |
| 1787668998 | 18.89° C | 74% | 1019.8 hPa | 0 mm | - | - | - |
| 1787668701 | 18.89° C | 75% | 1019.9 hPa | 0 mm | - | - | - |
| 1787668419 | 18.89° C | 75% | 1020 hPa | 0 mm | - | - | - |
| 1787668109 | 18.89° C | 76% | 1020 hPa | 0 mm | - | - | - |
| 1787667809 | 18.89° C | 73% | 1019.9 hPa | 0 mm | - | - | - |
| 1787667505 | 18.89° C | 76% | 1019.9 hPa | 0 mm | - | - | - |
| 1787667209 | 18.89° C | 75% | 1020 hPa | 0 mm | - | - | - |
| 1787666900 | 18.33° C | 75% | 1020 hPa | 0 mm | - | - | - |
| 1787666599 | 18.33° C | 76% | 1020 hPa | 0 mm | - | - | - |
| 1787666302 | 18.33° C | 75% | 1020.3 hPa | 0 mm | - | - | - |
| 1787665999 | 18.33° C | 76% | 1020.2 hPa | 0 mm | - | - | - |
| 1787665716 | 18.33° C | 76% | 1020.3 hPa | 0 mm | - | - | - |
| 1787665417 | 18.33° C | 80% | 1020.3 hPa | 0 mm | - | - | - |
| 1787665094 | 17.78° C | 78% | 1020.4 hPa | 0 mm | - | - | - |
| 1787664801 | 17.78° C | 80% | 1020.3 hPa | 0 mm | - | - | - |
* Rain since midnight (hover to see other rain measurements)
** Current wind speed in m/s (hover to see current wind gust speed)